Lexington Weather

Lexington, Massachusetts, USA

44°F
4/22/2024 9:12am 
  • Lexington Conditions: Clear
  • Temperature: 44.2°F / 6.8°CWarmer 3.4°F than last hour.
  • Dew Point: 27.3°FDecreased 0.7°Fsince last hour.
  • Relative Humidity: 51%Decreased 9.0% since last hour.
  • Wind: Calm, 10-min avg: Calm, gust: 4 mph
  • Barometer: 29.96 in Steady
  • Visibility: 10 miles
  • Rain Today: 0.00 in
  •   

Regional Weather Roundup
for Boston, MA

        
000
ASUS41 KBOX 201010
RWRBOX

REGIONAL WEATHER ROUNDUP
NATIONAL WEATHER SERVICE BOSTON/NORTON MA
600 AM EDT SAT APR 20 2024

NOTE:  "FAIR" INDICATES FEW OR NO CLOUDS BELOW 12,000 FEET WITH NO 
SIGNIFICANT WEATHER AND/OR OBSTRUCTIONS TO VISIBILITY.

MAZALL-201100-
EASTERN MASSACHUSETTS
  
CITY           SKY/WX    TMP DP  RH WIND       PRES   REMARKS
BOSTON         CLOUDY    48  45  89 SW8       29.96F                  
BEVERLY        CLOUDY    48  44  86 S8        29.95S                  
LAWRENCE       CLOUDY    48  43  82 S8        29.97S                  
BEDFORD        CLOUDY    48  43  82 S7        29.94F                  
NORWOOD        CLOUDY    49  45  86 S3        29.96F                  
MARSHFIELD     CLOUDY    46  45  93 S6        29.97F FOG              
PLYMOUTH       CLOUDY    47  46  97 S3        29.97F FOG              
TAUNTON        CLOUDY    48  45  89 CALM      29.97F                  
NEW BEDFORD    CLOUDY    47  46  97 SE5       29.97F FOG              
$$

MAZALL-201100-
CAPE COD AND THE ISLANDS
  
CITY           SKY/WX    TMP DP  RH WIND       PRES   REMARKS
FALMOUTH       NOT AVBL                                               
HYANNIS        CLOUDY    46  45  96 S5        29.98S                  
CHATHAM        CLOUDY    45  44  97 VRB3      30.00S                  
PROVINCETOWN   FOG       46  46 100 S7        30.00S VSB 1            
NANTUCKET      CLOUDY    46  46 100 SE6       30.00S                  
MARTHAS VNYRD  CLOUDY    47  46  97 S6        29.99S                  
$$
 
MAZALL-201100-
CENTRAL AND WESTERN MASSACHUSETTS
  
CITY           SKY/WX    TMP DP  RH WIND       PRES   REMARKS
WORCESTER      CLOUDY    45  43  93 SW10      29.92F FOG              
FITCHBURG      LGT RAIN  48  44  86 S3        29.94F                  
ORANGE         LGT RAIN  46  45  96 S7        29.94F                  
SPRINGFIELD    LGT RAIN  48  46  93 S6        29.92S                  
WESTFIELD      RAIN      47  45  93 S3        29.93F FOG              
NORTH ADAMS    CLOUDY    50  47  89 CALM      29.92S                  
PITTSFIELD     CLOUDY    47  44  90 SW7       29.91S                  
$$
 
RIZALL-201100-
RHODE ISLAND
  
CITY           SKY/WX    TMP DP  RH WIND       PRES   REMARKS
PROVIDENCE     CLOUDY    46  46 100 S3        29.97F FOG              
NEWPORT        FOG       44  44 100 SE3       29.96F VSB 1            
BLOCK ISLAND   FOG       44  43  96 S3        29.98S VSB 1/4          
SMITHFIELD     CLOUDY    45  45 100 SW5       29.96F                  
WESTERLY       FOG       46  44  93 CALM      29.97F VSB 1/2          
$$
 
CTZALL-201100-
CONNECTICUT
  
CITY           SKY/WX    TMP DP  RH WIND       PRES   REMARKS
BRADLEY INTL   RAIN      49  46  90 S7        29.95S FOG              
HARTFORD       CLOUDY    48  46  93 S6        29.95F FOG              
PLAINVILLE     CLOUDY    47  47 100 S7        29.95F                  
BRIDGEPORT     CLOUDY    49  46  90 SW6       29.97F                  
DANBURY        RAIN      49  46  90 CALM      29.96F FOG              
GROTON         FOG       47  47 100 CALM      29.97S VSB 3/4          
NEW HAVEN      CLOUDY    49  48  97 S3        29.97S FOG              
CHESTER        FOG       46  46 100 S3        29.96S VSB<1/4          
MERIDEN        CLOUDY    47  44  90 S5        29.96F FOG              
WILLIMANTIC    CLOUDY    46  45  96 S3        29.96F                  
OXFORD         LGT RAIN  45  45 100 SW3       29.96S VSB 1/2          
$$

MEZ002-015-021-024-NHZ003-005-008-011-012-014-VTZ005-008-201100-
NORTHERN NEW ENGLAND
  
CITY           SKY/WX    TMP DP  RH WIND       PRES   REMARKS
PORTLAND ME    LGT RAIN  45  43  93 S7        29.94S                  
BANGOR ME      LGT RAIN  46  38  73 S9        29.93S                  
CONCORD NH     RAIN      45  44  97 SE5       29.94R                  
MANCHESTER NH  LGT RAIN  48  43  82 SE6       29.92S                  
NASHUA NH      RAIN      48  48 100 SE3       29.94F FOG              
PORTSMOUTH NH  CLOUDY    48  44  86 S5        29.94                   
JAFFREY NH     LGT RAIN  46  43  89 CALM      29.92F                  
KEENE NH       CLOUDY    46  45  96 E3        29.92F                  
BURLINGTON VT  CLOUDY    50  42  74 NW8       29.89R                  
MT. WASHINGTON FOG       28  28 100 W41         N/A  VSB 0   WCI  11  
$$

NYZ052-076-201100-
EASTERN NEW YORK
  
CITY           SKY/WX    TMP DP  RH WIND       PRES   REMARKS
ALBANY         CLOUDY    50  45  83 S7        29.93S                  
NEW YORK CITY  CLOUDY    50  45  83 S8        29.97S                  
$$
 
ANZALL-201100-
MARINE OBSERVATIONS
  
STATION/POSITION TIME  TEMP    WIND        PRES    VSBY  WAVE
                       AIR SEA DIR/SP/G                  HT/PER
                 (UTC) (F)     (DEG/KT/KT) (MB)    (MI)  (FT/S)
BOSTON BUOY      0950   46     180/ 10/ 12 1014.7F         2/11
BUZZARDS BAY     0900   45     200/  3/  4 1016.2F
NANTUCKET SOUND  0950   47 47  170/  8/  8 1015.2F         1
MASS BAY-STELLWA 0804   46 45  190/ 10/ 12 1015.6F  1 7/8  2/ 8
ISLE OF SHOALS   0900   47     190/ 15/ 16 1013.7F
S OF BLOCK IS    0856      44                N/A           5/ 8
$$

......................KEY.........................
  SKY/WX - SKY CONDITION/PRESENT WEATHER
  TMP    - TEMPERATURE IN FAHRENHEIT
  DWPT   - DEWPOINT IN FAHRENHEIT
  RH     - RELATIVE HUMIDITY IN PERCENT
  WIND   - DIRECTION AND SPEED IN MPH
  PRES   - MEAN SEA LEVEL PRESSURE IN INCHES OF HG
  WCI    - WIND CHILL INDEX
  VSB    - VISIBILITY IN MILES
  HX     - HEAT INDEX
  TC     - TEMPERATURE IN CELSIUS
  VRB    - VARIABLE WIND DIRECTION
  N/A    - NOT AVAILABLE
  
      

Other recent Regional Weather Roundups

Mon Apr 22, 8:10am EDT

Mon Apr 22, 7:10am EDT

Mon Apr 22, 6:10am EDT

Mon Apr 22, 5:10am EDT

Mon Apr 22, 4:10am EDT

Mon Apr 22, 3:10am EDT

Mon Apr 22, 2:10am EDT

Mon Apr 22, 1:10am EDT

Mon Apr 22, 12:10am EDT

Sun Apr 21, 11:10pm EDT

Sun Apr 21, 10:10pm EDT

Sun Apr 21, 9:10pm EDT

Sun Apr 21, 8:10pm EDT

Sun Apr 21, 7:10pm EDT

Sun Apr 21, 6:10pm EDT

Sun Apr 21, 5:10pm EDT

Sun Apr 21, 4:10pm EDT

Sun Apr 21, 3:10pm EDT

Sun Apr 21, 2:10pm EDT

Sun Apr 21, 1:10pm EDT

Sun Apr 21, 12:10pm EDT

Sun Apr 21, 11:10am EDT

Sun Apr 21, 10:10am EDT

Sun Apr 21, 9:10am EDT

Sun Apr 21, 8:10am EDT

Sun Apr 21, 7:10am EDT

Sun Apr 21, 6:10am EDT

Sun Apr 21, 5:10am EDT

Sun Apr 21, 4:10am EDT

Sun Apr 21, 3:10am EDT

Sun Apr 21, 2:10am EDT

Sun Apr 21, 1:10am EDT

Sun Apr 21, 12:10am EDT

Sat Apr 20, 11:10pm EDT

Sat Apr 20, 10:10pm EDT

Sat Apr 20, 9:10pm EDT

Sat Apr 20, 8:10pm EDT

Sat Apr 20, 7:10pm EDT

Sat Apr 20, 6:10pm EDT

Sat Apr 20, 5:10pm EDT

Sat Apr 20, 4:10pm EDT

Sat Apr 20, 3:10pm EDT

Sat Apr 20, 2:10pm EDT

Sat Apr 20, 1:10pm EDT

Sat Apr 20, 12:10pm EDT

Sat Apr 20, 11:10am EDT

Sat Apr 20, 10:10am EDT

Sat Apr 20, 9:10am EDT

Sat Apr 20, 8:10am EDT

Sat Apr 20, 7:10am EDT

Sat Apr 20, 5:10am EDT

Sat Apr 20, 4:10am EDT

Sat Apr 20, 3:10am EDT

Sat Apr 20, 2:10am EDT

Sat Apr 20, 1:10am EDT

Sat Apr 20, 12:10am EDT

Fri Apr 19, 11:10pm EDT

Fri Apr 19, 10:10pm EDT

Fri Apr 19, 9:10pm EDT

Fri Apr 19, 8:10pm EDT

Fri Apr 19, 7:10pm EDT

Fri Apr 19, 6:10pm EDT

Fri Apr 19, 5:10pm EDT

Fri Apr 19, 4:10pm EDT

Fri Apr 19, 3:10pm EDT

Fri Apr 19, 2:10pm EDT

Fri Apr 19, 1:10pm EDT

Fri Apr 19, 12:10pm EDT

Fri Apr 19, 11:10am EDT

Fri Apr 19, 10:10am EDT

Fri Apr 19, 9:10am EDT

Fri Apr 19, 8:10am EDT

Fri Apr 19, 7:10am EDT

Fri Apr 19, 6:10am EDT

Fri Apr 19, 5:10am EDT

Fri Apr 19, 4:10am EDT

Fri Apr 19, 3:10am EDT

Fri Apr 19, 2:10am EDT

Fri Apr 19, 1:10am EDT

Fri Apr 19, 12:10am EDT

Thu Apr 18, 11:10pm EDT

Thu Apr 18, 10:10pm EDT

Thu Apr 18, 9:10pm EDT

Thu Apr 18, 8:10pm EDT

Thu Apr 18, 7:10pm EDT

Thu Apr 18, 6:10pm EDT

Thu Apr 18, 5:10pm EDT

Thu Apr 18, 4:10pm EDT

Thu Apr 18, 3:10pm EDT

Thu Apr 18, 2:10pm EDT

Thu Apr 18, 1:10pm EDT

Thu Apr 18, 12:10pm EDT

Thu Apr 18, 11:10am EDT

Thu Apr 18, 10:10am EDT

Thu Apr 18, 9:10am EDT

Thu Apr 18, 8:10am EDT

Thu Apr 18, 7:10am EDT

Thu Apr 18, 6:10am EDT

Thu Apr 18, 5:10am EDT

Thu Apr 18, 4:10am EDT

Thu Apr 18, 3:10am EDT

Thu Apr 18, 2:10am EDT

Thu Apr 18, 1:10am EDT

Thu Apr 18, 12:10am EDT

Wed Apr 17, 11:10pm EDT

Wed Apr 17, 10:10pm EDT

Wed Apr 17, 9:10pm EDT

Wed Apr 17, 8:10pm EDT

Wed Apr 17, 7:10pm EDT

Wed Apr 17, 6:10pm EDT

Wed Apr 17, 5:10pm EDT

Wed Apr 17, 4:10pm EDT

Wed Apr 17, 3:10pm EDT

Wed Apr 17, 2:10pm EDT

Wed Apr 17, 1:10pm EDT

Wed Apr 17, 12:10pm EDT

Wed Apr 17, 11:10am EDT

Wed Apr 17, 10:10am EDT

Wed Apr 17, 9:10am EDT

Wed Apr 17, 8:10am EDT

Wed Apr 17, 7:10am EDT

Wed Apr 17, 6:10am EDT

Wed Apr 17, 5:10am EDT

Wed Apr 17, 4:10am EDT

Wed Apr 17, 3:10am EDT

Wed Apr 17, 2:10am EDT

Wed Apr 17, 1:10am EDT

Wed Apr 17, 12:10am EDT

Tue Apr 16, 11:10pm EDT

Tue Apr 16, 10:10pm EDT

Tue Apr 16, 9:10pm EDT

Tue Apr 16, 8:10pm EDT

Tue Apr 16, 7:10pm EDT

Tue Apr 16, 6:10pm EDT

Tue Apr 16, 5:10pm EDT

Tue Apr 16, 4:10pm EDT

Tue Apr 16, 3:10pm EDT

Tue Apr 16, 2:10pm EDT

Tue Apr 16, 1:10pm EDT

Tue Apr 16, 12:10pm EDT

Tue Apr 16, 11:10am EDT

Tue Apr 16, 10:10am EDT

Tue Apr 16, 9:10am EDT

Tue Apr 16, 8:10am EDT

Tue Apr 16, 7:10am EDT

Tue Apr 16, 6:10am EDT

Tue Apr 16, 5:10am EDT

Tue Apr 16, 4:10am EDT

Tue Apr 16, 3:10am EDT

Tue Apr 16, 2:10am EDT

Tue Apr 16, 1:10am EDT

Tue Apr 16, 12:10am EDT

Mon Apr 15, 11:10pm EDT

Mon Apr 15, 10:10pm EDT

Mon Apr 15, 9:10pm EDT

Mon Apr 15, 8:10pm EDT

Mon Apr 15, 7:10pm EDT

Mon Apr 15, 6:10pm EDT

Mon Apr 15, 5:10pm EDT

Mon Apr 15, 4:10pm EDT

Mon Apr 15, 3:10pm EDT

Mon Apr 15, 2:10pm EDT

Mon Apr 15, 1:10pm EDT

Mon Apr 15, 12:10pm EDT

Mon Apr 15, 11:10am EDT

Mon Apr 15, 10:10am EDT

Mon Apr 15, 9:10am EDT